User: anonymous   Login
Location: Caltech
(34.1382°N, 118.1253°W)
Time: 19:22:47
(UTC-07:00)
Language:

OAO 2 Rocket - Orbit

View from above orbital plane
View from above orbital plane
View from above satellite
View from above satellite

Ground track
Ground track

The orbit data is extracted from the following two-line orbital elements,

1 03598U 68110B   15216.19204373  .00000135  00000-0  36056-4 0  9998
2 03598 034.9924 233.4211 0049048 088.3751 272.2559 14.54080930466991
Epoch (UTC): 04 August 2015 04:36:32
Eccentricity: 0.0049048
inclination: 34.9924°
perigee height: 677 km
apogee height: 747 km
right ascension of ascending node: 233.4211°
argument of perigee: 88.3751°
revolutions per day: 14.54080930
mean anomaly at epoch: 272.2559°
orbit number at epoch: 46699

The dashed part of the orbit path shows where the satellite is in the earth's shadow,  

DLR